Tracking 28766 objects as of 14-Apr-2024
HD Live streaming from Space Station
objects crossing your sky now

OBJECT H

Track OBJECT H now!
10-day predictions


NORAD ID: 47939
Int'l Code: 2021-022H
Perigee: 473.0 km
Apogee: 486.6 km
Inclination: 97.5 °
Period: 94.1 minutes
Semi major axis: 6850 km
RCS: Unknown
Launch date: March 22, 2021
Source: (TBD)
Launch site: TYURATAM MISSILE AND SPACE COMPLEX (TTMTR)

Note: This is a ROCKET BODY
Your satellite tracking list
Your tracking list is empty




NASA's NSSDC Master Catalog

Two Line Element Set (TLE):
1 47939U 21022H   24104.83387679  .00037919  00000-0  12596-2 0  9995
2 47939  97.4698   8.1280 0009904 351.2962   8.8105 15.31060616169104
Source of the keplerian elements: AFSPC